Location: Unspecified
(0.0000°N, 0.0000°E)
Time: 10:16:52
(UTC+00:00)

Explorer 11/Cluster Stage 4 - Pass Details

Date: 03 November 2024
Orbit: 464 x 1202 km, 28.8° (Epoch: 05 December)

Event Time Altitude Azimuth Distance (km) Brightness Sun altitude
Rises 18:41:23 0° 268° (W) 4,002 11.9 -13.9°
Reaches altitude 10° 18:44:55 10° 254° (WSW) 3,101 11.1 -14.8°
Maximum altitude 18:50:43 22° 206° (SSW) 2,348 9.5 -16.2°
Drops below altitude 10° 18:56:33 10° 158° (SSE) 3,101 9.6 -17.6°
Sets 19:00:05 0° 143° (SE) 4,001 10.0 -18.4°
